Voltar ao catálogo

DELTA 1 DEB

AtivoSSO
NORAD 42584·DEBRIS·🇺🇸 United States

Lançado Nov 6, 1973 de Vandenberg Space Force Base

Loading…

Próximas Passagens (próximas 24 horas)

TLE

AtualizadoSource: Space-Track

Época: Sep 11, 2026, 12:40 UTC

1 42584U 73086HY  26254.52795861 -.00000032  00000-0  11385-3 0  9996
2 42584 102.3956 271.2674 0019686 172.0301 343.0565 12.36927138578170

Acompanhe DELTA 1 DEB em tempo real com AllMySat

Download on the App Store